星链-5476 (STARLINK-5476 )

导读

STARLINK-5476是美国SpaceX公司星链(Starlink)星座中的一颗第二代互联网通信卫星,于2023年7月7日发射升空。它运行在近地轨道,为全球偏远地区提供低延迟、高速宽带互联网接入服务,助力缩小数字鸿沟。作为星链大规模星座组网计划的一环,该卫星延续了星链标准化设计,配备太阳能电池阵与相控阵通信天线,服役期满后会主动离轨再入大气层,减少空间垃圾。

Basic Information
目录编号:
57258
目录名称:
STARLINK-5476
国际标识:
2023-094AS
轨道中心:
EARTH
卫星名称:
星链-5476
卫星全名:
星链-5476 (STARLINK-5476 )
卫星状态:
在轨 (已飞行1155 天)
发射日期:
2023-07-07 UTC
国别 :
美国 (US)
星等 :
--
Orbit Information
数据来源 国际轨道数据
星历时间: 2026-09-04T14:30:21+0800
11小时前
查看轨道信息
半长轴: 6861.195km
偏心率: 0.0001052
轨道倾角: 43.003°
近地点辐角 262.178°
升交点赤经 91.186°
平近点角 97.895°
近地点: 482.336km
远地点: 483.78km
周期: 94.267分钟
每日圈数: 15.275773
Detailed Information
固有亮度:
5
最大亮度:
2.4
卫星平台:
Starlink v1.5
覆盖范围:
全球
运营商:
太空探索技术公司
运营商所在国:
美国
制造商(研发单位):
太空探索技术公司
制造商所在国:
美国
使用方式:
暂无
Satellite Introduction
星链(Starlink)计划是由太空探索技术公司(SpaceX)提出的一个巨型低轨卫星互联网星座项目,计划在2019年至2024年间在太空搭建由约1.2万颗卫星组成的“星链”网络,其中1584颗将部署在地球上空550千米处的近地轨道,并从2020年开始工作。该卫星仍在工作。
2D Orbit Map
3D Orbit Map
Orbit Altitude Analysis Chart
Orbit Inclination Analysis Chart
Orbit Comprehensive Analysis Chart
View Comprehensive Chart
Conjunction Data List
Event ID Objects TCA Miss Dist (km) Collision Risk Probability Collision Risk Index (CRI) Action
CDM_260906-212305-725806-327921
2026-09-06T
21:23:15+0000
0.848 km
远距离
3.551817E-5 中风险 0.66
CDM_260905-233205-212305-725821
2026-09-05T
23:32:39+0000
1.389 km
极远距离
6.160129E-6 低风险 0.51
CDM_260905-200105-725805-855521
HONGHU 2 (58555)
2026-09-05T
20:01:07+0000
1.597 km
极远距离
5.303412E-6 低风险 0.49
CDM_260906-194905-725806-327921
2026-09-06T
19:49:06+0000
1.505 km
极远距离
5.023466E-6 低风险 0.49
CDM_260906-120804-361305-725821
ICESAT-2 (43613)
2026-09-06T
12:08:18+0000
2.473 km
极远距离
1.647232E-6 低风险 0.39
CDM_260905-044304-361305-725821
ICESAT-2 (43613)
2026-09-05T
04:43:20+0000
2.597 km
极远距离
1.53562E-6 低风险 0.39
CDM_260905-061704-361305-725822
ICESAT-2 (43613)
2026-09-05T
06:17:35+0000
2.686 km
极远距离
1.454968E-6 低风险 0.38